CW9181 Weather Reports


time (UTC)temp
C
wind
direction
speed
KPH
gust
KPH
rain 1hr
cm
rain 24hr
cm
rain mn
cm
humidity
%
barometer
mb
20260903135024 15 135 3.2 11.3 0.00 0.00 0.00 82 1014.9
20260903134044 15 133 6.4 11.3 0.00 0.00 0.00 82 1014.9
20260903133009 15 118 4.8 9.7 0.00 0.00 0.00 82 1014.9
20260903132033 15 126 6.4 9.7 0.00 0.00 0.00 82 1015.0
20260903131014 15 123 4.8 11.3 0.00 0.00 0.00 82 1015.0
20260903130012 15 155 4.8 11.3 0.00 0.00 0.00 82 1015.1
20260903125017 15 150 3.2 14.5 0.00 0.00 0.00 81 1015.1
20260903124022 15 116 8.0 11.3 0.00 0.00 0.00 81 1015.1
20260903123022 16 132 3.2 14.5 0.00 0.00 0.00 81 1015.0
20260903122027 16 149 3.2 11.3 0.00 0.00 0.00 81 1015.0
20260903121008 16 101 4.8 12.9 0.00 0.00 0.00 81 1015.0
20260903120027 16 135 3.2 9.7 0.00 0.00 0.00 81 1015.1
20260903115013 16 136 6.4 12.9 0.00 0.00 0.00 81 1015.1
20260903114016 16 142 8.0 14.5 0.00 0.00 0.00 81 1015.3
20260903113021 16 173 6.4 16.1 0.00 0.00 0.00 81 1015.4
20260903112023 16 143 3.2 11.3 0.00 0.00 0.00 81 1015.5
20260903111007 16 133 4.8 12.9 0.00 0.00 0.00 81 1015.5
20260903110009 16 143 8.0 14.5 0.00 0.00 0.00 81 1015.4
20260903105013 16 153 8.0 16.1 0.00 0.00 0.00 81 1015.5
20260903104016 16 143 6.4 11.3 0.00 0.00 0.00 81 1015.5
20260903103020 16 128 6.4 14.5 0.00 0.00 0.00 81 1015.4
20260903102018 16 143 4.8 14.5 0.00 0.00 0.00 81 1015.4
20260903101020 16 169 6.4 12.9 0.00 0.00 0.00 81 1015.5
20260903100023 16 168 6.4 12.9 0.00 0.00 0.00 80 1015.4
20260903095027 16 127 8.0 14.5 0.00 0.00 0.00 80 1015.5
20260903094024 16 110 6.4 12.9 0.00 0.00 0.00 79 1015.6
20260903093011 16 120 8.0 14.5 0.00 0.00 0.00 79 1015.6
20260903092019 16 154 6.4 11.3 0.00 0.00 0.00 78 1015.7
20260903091021 16 153 4.8 11.3 0.00 0.00 0.00 77 1015.8
20260903090027 16 166 4.8 12.9 0.00 0.00 0.00 77 1015.7
20260903085013 16 169 6.4 12.9 0.00 0.00 0.00 76 1015.7
20260903084037 16 150 4.8 12.9 0.00 0.00 0.00 75 1015.7
20260903083018 16 142 8.0 14.5 0.00 0.00 0.00 74 1015.7
20260903082041 16 152 4.8 12.9 0.00 0.00 0.00 74 1015.8
20260903081019 16 177 4.8 12.9 0.00 0.00 0.00 73 1015.6
20260903080023 17 172 4.8 8.0 0.00 0.00 0.00 71 1015.6
20260903075025 17 138 4.8 9.7 0.00 0.00 0.00 70 1015.7
20260903074007 17 124 4.8 12.9 0.00 0.00 0.00 69 1015.5
20260903073025 17 153 6.4 16.1 0.00 0.00 0.00 69 1015.4
20260903072025 17 151 4.8 11.3 0.00 0.00 0.00 68 1015.5
20260903071008 17 170 4.8 11.3 0.00 0.00 0.00 67 1015.5
20260903070024 18 143 3.2 8.0 0.00 0.00 0.00 67 1015.5
20260903065017 18 161 3.2 8.0 0.00 0.00 0.00 66 1015.5
20260903064018 18 146 4.8 6.4 0.00 0.00 0.00 66 1015.5
20260903063040 18 186 3.2 6.4 0.00 0.00 0.00 65 1015.5
20260903062019 18 157 0.0 6.4 0.00 0.00 0.00 64 1015.4
20260903061021 18 162 3.2 6.4 0.00 0.00 0.00 63 1015.4
20260903060021 18 172 3.2 11.3 0.00 0.00 0.00 63 1015.5
20260903055038 18 166 3.2 8.0 0.00 0.00 0.00 63 1015.5
20260903054019 19 185 3.2 6.4 0.00 0.00 0.00 63 1015.5
20260903053034 19 197 0.0 4.8 0.00 0.00 0.00 62 1015.6
20260903052016 20 138 1.6 4.8 0.00 0.00 0.00 61 1015.5
20260903051017 20 132 3.2 4.8 0.00 0.00 0.00 60 1015.5
20260903050017 20 197 1.6 4.8 0.00 0.00 0.00 59 1015.5
20260903045013 20 130 1.6 4.8 0.00 0.00 0.00 58 1015.6
20260903044016 20 133 3.2 4.8 0.00 0.00 0.00 57 1015.5
20260903043020 20 144 3.2 6.4 0.00 0.00 0.00 57 1015.5
20260903042018 20 170 3.2 4.8 0.00 0.00 0.00 56 1015.5
20260903041018 21 199 1.6 4.8 0.00 0.00 0.00 55 1015.4
20260903040018 21 180 1.6 4.8 0.00 0.00 0.00 54 1015.1
20260903035015 21 241 1.6 6.4 0.00 0.00 0.00 54 1015.0
20260903034013 21 233 1.6 8.0 0.00 0.00 0.00 53 1014.8
20260903033017 21 209 3.2 8.0 0.00 0.00 0.00 54 1014.8
20260903032012 21 260 3.2 8.0 0.00 0.00 0.00 54 1014.8
20260903031012 22 203 1.6 4.8 0.00 0.00 0.00 54 1014.6
20260903030034 22 247 1.6 8.0 0.00 0.00 0.00 54 1014.7
20260903025032 22 216 1.6 4.8 0.00 0.00 0.00 54 1014.7
20260903024012 22 194 1.6 9.7 0.00 0.00 0.00 53 1014.7
20260903023015 23 251 3.2 12.9 0.00 0.00 0.00 53 1014.7
20260903022012 23 239 6.4 16.1 0.00 0.00 0.00 52 1014.8
20260903021017 23 244 3.2 16.1 0.00 0.00 0.00 52 1014.7
20260903020019 23 250 4.8 14.5 0.00 0.00 0.00 52 1014.7
20260903015037 24 226 3.2 11.3 0.00 0.00 0.00 51 1014.7
20260903014038 25 234 4.8 16.1 0.00 0.00 0.00 50 1014.8
20260903013023 25 265 3.2 20.9 0.00 0.00 0.00 50 1014.9
20260903012023 25 251 11.3 14.5 0.00 0.00 0.00 49 1015.0
20260903011044 25 182 4.8 16.1 0.00 0.00 0.00 49 1015.0
20260903010025 24 239 4.8 20.9 0.00 0.00 0.00 50 1014.9
20260903005020 25 132 4.8 16.1 0.00 0.00 0.00 50 1014.9
20260903004046 25 182 4.8 14.5 0.00 0.00 0.00 48 1015.2
20260903003117 26 245 4.8 17.7 0.00 0.00 0.00 47 1015.2
20260903003029 26 245 4.8 17.7 0.00 0.00 0.00 47 1015.2
20260903002024 25 218 6.4 20.9 0.00 0.00 0.00 49 1015.2
20260903001010 25 253 6.4 12.9 0.00 0.00 0.00 50 1015.4
20260903000012 25 234 8.0 16.1 0.00 0.00 0.00 49 1015.4
20260902235026 25 234 9.7 17.7 0.00 0.00 0.00 50 1015.4
20260902234026 25 270 4.8 19.3 0.00 0.00 0.00 50 1015.5
20260902233010 25 188 9.7 20.9 0.00 0.00 0.00 50 1015.5
20260902232025 25 295 8.0 16.1 0.00 0.00 0.00 50 1015.7
20260902231028 25 185 4.8 24.1 0.00 0.00 0.00 50 1015.6
20260902230027 25 289 9.7 19.3 0.00 0.00 0.00 48 1015.6
20260902225009 26 188 6.4 14.5 0.00 0.00 0.00 48 1015.7
20260902224026 26 249 11.3 20.9 0.00 0.00 0.00 49 1016.0
20260902223028 26 196 9.7 19.3 0.00 0.00 0.00 48 1016.0
20260902222010 26 213 8.0 16.1 0.00 0.00 0.00 47 1016.0
20260902221045 25 193 11.3 19.3 0.00 0.00 0.00 49 1016.0
20260902220026 25 265 8.0 17.7 0.00 0.00 0.00 50 1016.1
20260902215027 25 270 9.7 17.7 0.00 0.00 0.00 50 1016.2
20260902214023 24 311 6.4 16.1 0.00 0.00 0.00 50 1016.5
20260902213027 25 260 6.4 16.1 0.00 0.00 0.00 49 1016.5
20260902212012 25 255 3.2 16.1 0.00 0.00 0.00 49 1016.6
20260902211038 25 175 4.8 17.7 0.00 0.00 0.00 52 1016.6
20260902210019 23 270 6.4 17.7 0.00 0.00 0.00 52 1016.6
20260902205022 24 295 6.4 16.1 0.00 0.00 0.00 53 1016.7
20260902204018 25 251 6.4 16.1 0.00 0.00 0.00 52 1016.8
20260902203105 23 274 8.0 17.7 0.00 0.00 0.00 53 1016.9
20260902202014 25 184 6.4 17.7 0.00 0.00 0.00 53 1017.1
20260902201031 24 254 6.4 12.9 0.00 0.00 0.00 53 1017.2
20260902200009 23 249 6.4 12.9 0.00 0.00 0.00 56 1017.3
20260902195048 23 238 4.8 14.5 0.00 0.00 0.00 56 1017.3
20260902194031 23 245 8.0 17.7 0.00 0.00 0.00 55 1017.4
20260902193034 23 227 4.8 16.1 0.00 0.00 0.00 55 1017.6
20260902192009 23 253 8.0 16.1 0.00 0.00 0.00 56 1017.6
20260902191016 23 230 4.8 8.0 0.00 0.00 0.00 55 1017.8
20260902190036 23 196 8.0 11.3 0.00 0.00 0.00 56 1017.9
20260902185011 23 103 3.2 6.4 0.00 0.00 0.00 56 1017.8
20260902184016 22 306 1.6 9.7 0.00 0.00 0.00 59 1017.8
20260902183020 22 284 4.8 8.0 0.00 0.00 0.00 58 1017.9
20260902182038 23 164 4.8 12.9 0.00 0.00 0.00 57 1018.0
20260902181016 23 124 4.8 11.3 0.00 0.00 0.00 58 1017.9
20260902180016 23 247 6.4 14.5 0.00 0.00 0.00 58 1017.9
20260902175009 23 282 6.4 12.9 0.00 0.00 0.00 59 1018.0
20260902174035 22 107 6.4 9.7 0.00 0.00 0.00 60 1018.0
20260902173018 22 149 4.8 9.7 0.00 0.00 0.00 62 1017.9
20260902172020 21 223 4.8 8.0 0.00 0.00 0.00 64 1017.8
20260902171023 22 140 3.2 11.3 0.00 0.00 0.00 62 1017.8
20260902170022 21 64 1.6 11.3 0.00 0.00 0.00 64 1017.7
20260902165024 21 104 6.4 14.5 0.00 0.00 0.00 66 1017.7
20260902164041 20 95 3.2 8.0 0.00 0.00 0.00 66 1017.6
20260902163019 20 156 3.2 11.3 0.00 0.00 0.00 67 1017.5
20260902162019 20 162 6.4 11.3 0.00 0.00 0.00 68 1017.5
20260902161021 20 168 4.8 8.0 0.00 0.00 0.00 69 1017.6
20260902160043 19 118 3.2 8.0 0.00 0.00 0.00 70 1017.8
20260902155010 18 178 4.8 11.3 0.00 0.00 0.00 72 1017.6
20260902154013 18 153 4.8 8.0 0.00 0.00 0.00 73 1017.7
20260902153050 17 122 6.4 8.0 0.00 0.00 0.00 74 1017.7
20260902153014 17 122 6.4 8.0 0.00 0.00 0.00 74 1017.7
20260902152028 17 172 3.2 9.7 0.00 0.00 0.00 77 1017.6
20260902151028 16 101 3.2 8.0 0.00 0.00 0.00 78 1017.6
20260902150008 16 107 3.2 6.4 0.00 0.00 0.00 79 1017.5
20260902145026 16 85 4.8 8.0 0.00 0.00 0.00 79 1017.5
20260902144009 16 101 4.8 6.4 0.00 0.00 0.00 79 1017.3
20260902143010 16 130 6.4 11.3 0.00 0.00 0.00 80 1017.2
20260902142014 15 89 8.0 9.7 0.00 0.00 0.00 80 1017.1
20260902141010 15 108 3.2 6.4 0.00 0.00 0.00 81 1017.2
20260902140031 15 122 0.0 6.4 0.00 0.00 0.00 81 1017.2